Vorticity
nan nan nan nan nan nan nan nan nan nan nan nan nan nan nan nan nan nan nan nan nan nan nan nan nan nan nan nan nan nan nan nan nan nan nan nan nan nan nan nan nan nan nan
nan 11 11 6 7 5 4 3 4 4 4 4 5 5 5 4 3 4 3 4 3 3 4 5 4 3 3 4 4 4 4 3 3 8 8 6 5 4 2 3 6 7 nan
nan 13 10 7 5 7 5 4 5 4 4 4 4 4 4 5 4 4 3 4 5 4 3 5 4 5 6 6 5 5 5 4 6 6 5 6 7 6 3 3 5 5 nan
nan 13 8 7 5 6 7 6 4 5 4 4 4 4 4 4 5 4 5 5 5 5 6 6 6 5 7 8 6 5 4 4 7 5 4 6 9 6 4 3 4 5 nan
nan 11 7 6 5 5 7 8 4 4 5 5 5 4 4 4 5 5 5 6 7 7 8 8 8 5 6 8 7 5 5 6 6 5 4 5 9 8 5 4 5 4 nan
nan 9 9 10 11 7 4 6 6 5 5 5 5 5 5 6 5 6 7 6 5 6 7 6 6 6 5 5 7 6 5 6 4 5 5 7 10 10 5 4 5 4 nan
nan 9 8 9 12 14 14 14 9 5 5 5 5 5 5 6 7 6 6 4 5 6 6 7 4 5 5 7 6 6 5 5 4 6 7 5 11 9 4 4 4 5 nan
nan 8 8 7 10 15 12 9 17 18 9 6 5 5 6 7 5 7 8 6 6 6 7 6 7 6 4 5 7 7 6 5 7 7 6 7 12 8 5 4 4 5 nan
nan 6 6 6 8 8 8 8 8 15 19 16 8 6 6 8 8 10 9 10 10 8 9 6 6 5 5 6 6 8 6 6 5 7 6 10 12 6 4 5 6 5 nan
nan 5 6 6 6 6 6 7 8 8 13 14 16 13 10 10 9 9 10 13 10 7 7 8 7 5 5 5 6 7 5 3 7 7 5 11 11 6 4 5 5 5 nan
nan 4 6 6 6 7 6 6 9 8 9 13 16 19 15 11 11 10 10 11 9 9 7 7 6 5 6 6 8 6 3 1 6 5 11 13 8 6 5 5 4 5 nan
nan 5 6 6 7 8 6 6 7 7 8 9 10 11 13 15 14 14 13 11 9 7 10 9 8 5 3 5 10 7 4 7 6 5 11 13 8 6 6 5 4 5 nan
nan 5 6 7 6 7 7 7 7 6 7 5 6 6 6 8 14 15 10 12 12 9 8 9 8 8 7 6 7 7 8 6 6 9 13 12 9 7 5 5 5 5 nan
nan 6 7 6 7 7 7 6 7 7 7 6 5 7 9 9 5 7 12 10 9 11 10 8 8 10 9 8 6 6 6 4 5 9 14 13 9 8 5 6 5 5 nan
nan 7 7 7 8 7 7 6 6 6 6 6 6 6 6 7 9 8 4 9 14 8 9 9 8 8 9 8 6 7 7 7 4 4 9 14 14 11 7 6 5 5 nan
nan 8 7 7 7 7 6 6 7 7 7 7 6 4 5 7 6 6 9 7 6 12 11 9 8 7 8 8 7 6 6 8 7 4 8 12 13 12 9 6 6 6 nan
nan 6 7 7 5 6 7 8 8 7 8 8 7 7 5 5 6 7 7 7 8 5 11 14 7 9 8 10 9 6 6 6 8 6 5 8 13 15 13 8 7 6 nan
nan 6 5 5 6 7 8 8 7 7 8 8 8 8 7 7 7 8 8 7 6 7 6 11 14 7 8 9 8 9 8 9 8 8 5 8 9 11 16 12 8 8 nan
nan 5 6 7 7 6 8 9 8 8 9 8 8 8 8 9 7 7 8 8 7 5 5 5 12 14 7 8 8 8 8 9 8 10 9 6 6 8 12 15 12 9 nan
nan 7 7 6 6 10 11 9 9 10 8 8 8 6 7 8 8 8 9 9 10 7 6 7 4 7 12 9 10 11 10 10 10 9 10 8 7 7 9 9 9 16 nan
nan 5 8 7 7 10 9 8 8 8 9 9 8 6 8 8 9 9 8 9 8 8 7 6 6 4 12 10 2 5 10 11 15 15 10 11 12 9 7 7 5 9 nan
nan 8 7 4 5 10 9 9 8 8 9 8 9 11 11 9 10 9 7 9 7 7 9 9 8 8 7 9 7 5 5 4 9 10 13 13 7 12 16 10 9 6 nan
nan 8 8 5 7 9 9 10 7 8 7 9 9 10 10 9 9 9 9 8 9 9 10 11 10 6 7 7 7 4 7 10 6 10 8 13 11 4 8 18 16 8 nan
nan 9 6 6 8 8 10 8 9 8 9 10 9 7 7 9 9 9 9 7 8 10 9 8 8 8 8 8 7 4 5 13 7 5 10 9 11 12 6 5 14 19 nan
nan 8 7 7 8 8 9 9 9 8 8 8 8 9 11 11 11 9 9 10 9 8 10 10 10 7 5 9 7 9 5 0 11 8 10 7 6 12 11 9 8 10 nan
nan nan nan nan nan nan nan nan nan nan nan nan nan nan nan nan nan nan nan nan nan nan nan nan nan nan nan nan nan nan nan nan nan nan nan nan nan nan nan nan nan nan nan
CAPE
67 120 459 1156 640 571 490 343 273 374 310 419 665 819 914 839 846 850 1044 891 782 600 540 361 423 355 176 107 68 65 194 272 392 662 510 440 354 193 151 115 169 16 31
8 141 338 870 982 768 732 633 447 243 165 195 371 601 680 383 639 594 686 760 602 524 394 369 187 63 96 360 282 241 278 322 354 350 596 477 427 227 148 41 56 14 15
120 221 448 624 1045 865 602 709 566 204 69 105 181 237 437 425 456 470 463 679 634 399 275 278 112 184 461 573 341 426 374 279 241 385 410 250 216 204 64 22 17 15 19
425 310 435 483 730 960 829 715 781 409 204 64 51 177 145 209 248 231 217 200 259 217 181 9 288 295 549 424 423 352 463 419 324 226 210 162 149 175 100 37 22 14 14
599 402 364 399 799 734 870 813 628 724 577 250 45 0 89 82 94 209 265 148 225 66 12 58 428 268 381 380 276 294 335 272 154 64 139 75 154 154 86 41 23 15 20
558 451 343 409 822 875 663 746 681 512 493 490 346 88 49 189 366 359 337 242 272 297 308 229 291 256 356 386 255 280 284 174 39 89 100 78 53 114 76 31 15 12 26
488 365 408 325 379 577 722 660 631 720 534 509 643 549 411 312 324 549 418 432 513 359 272 256 231 297 205 247 301 234 170 86 54 78 91 67 66 130 77 28 15 14 18
58 0 0 37 94 137 150 196 398 515 526 521 565 595 637 447 413 542 449 417 333 268 298 241 251 192 117 171 203 172 99 9 50 84 88 64 75 102 47 15 7 14 16
0 0 0 0 0 0 4 12 61 135 290 417 430 448 443 419 336 610 417 409 342 355 275 229 211 133 114 128 153 97 29 1 51 70 83 95 79 116 50 18 14 19 11
0 0 0 0 0 0 0 0 0 0 7 15 87 159 192 312 180 301 349 229 385 321 306 185 162 144 167 97 123 50 17 2 7 57 71 59 119 125 71 40 16 18 17
0 0 0 0 0 0 0 0 0 0 0 3 5 7 4 88 229 190 194 174 264 231 220 304 185 131 102 90 62 28 0 48 23 38 69 55 125 130 85 50 23 20 22
0 0 0 0 0 0 0 0 0 0 0 0 0 0 5 44 128 158 150 24 132 126 161 205 208 85 85 131 99 5 84 22 34 70 62 79 140 136 106 47 35 19 15
0 0 0 0 0 0 0 0 0 0 0 0 0 0 0 0 20 10 58 24 63 38 178 207 238 190 108 75 92 46 71 24 53 66 56 86 204 170 125 73 33 37 13
0 0 0 0 0 0 0 0 0 0 0 0 0 0 0 0 0 1 55 47 61 38 90 186 207 123 68 49 45 30 26 33 63 67 48 62 113 206 141 107 70 32 17
0 0 0 0 0 0 0 0 0 0 0 0 0 0 0 0 0 0 0 3 41 37 32 34 115 59 61 65 50 28 24 23 20 67 71 9 64 196 177 119 74 38 39
0 0 0 0 0 0 0 0 0 0 0 0 0 0 0 0 0 0 0 0 0 8 21 26 33 66 59 74 54 38 33 23 16 18 72 45 5 126 196 142 109 75 37
0 0 0 0 0 0 0 0 0 0 0 0 0 0 0 0 0 0 0 0 0 0 3 1 5 27 89 65 64 44 6 2 12 36 31 11 0 20 82 172 142 94 85
0 0 0 0 0 0 0 0 0 0 0 0 0 0 0 0 0 0 0 0 0 0 0 6 9 2 9 51 69 49 17 13 5 28 45 2 12 11 30 90 120 162 74
0 0 0 0 0 0 0 0 0 0 0 0 0 0 0 0 0 0 0 0 0 0 0 0 0 7 2 5 49 58 37 7 0 7 44 17 4 19 90 22 30 37 103
0 0 0 0 0 0 0 0 0 0 0 0 0 0 0 0 0 0 0 0 4 0 0 0 0 0 14 0 0 22 50 40 15 10 10 23 3 11 62 80 25 1 19
0 0 0 0 0 0 0 0 0 0 0 0 0 0 0 0 0 2 6 0 0 6 0 0 0 0 0 24 7 0 0 0 1 1 7 27 17 24 18 15 34 17 2
0 0 0 0 0 0 0 0 0 0 0 0 0 0 0 0 0 0 0 2 0 0 3 1 0 0 0 0 0 0 0 0 1 0 0 0 0 0 13 2 11 10 0
0 0 0 0 0 0 0 0 0 0 0 0 0 0 0 0 2 0 0 2 0 0 2 17 1 0 0 0 6 0 0 0 0 0 0 0 0 0 0 0 0 0 0
0 0 0 0 0 0 0 0 0 0 0 0 0 1 1 0 0 2 0 0 0 17 12 15 22 0 0 0 0 15 0 0 0 1 0 0 0 0 0 0 0 0 0
0 0 0 0 0 0 0 0 0 0 1 0 0 1 3 6 1 3 6 7 9 17 24 25 31 31 0 0 0 2 3 0 0 0 0 0 0 0 0 0 0 0 0
0 0 0 0 0 0 0 0 0 0 0 3 3 6 6 8 10 8 5 8 8 8 10 28 40 46 25 8 1 11 1 0 0 0 0 0 0 0 0 0 0 0 0